Location: Henham
(51.9333°N, 0.2500°E)
Time: 05:38:14
(UTC+00:00)

USA 238 DEB - Pass Details

Date: 23 October 2019
Orbit: 1026 x 1186 km, 63.4° (Epoch: 19 November)

Event Time Altitude Azimuth Distance (km) Brightness Sun altitude
Rises 17:29:35 0° 192° (SSW) 3,772 6.9 -6.9°
Reaches altitude 10° 17:32:19 10° 185° (S) 2,834 6.1 -7.3°
Maximum altitude 17:38:25 39° 119° (ESE) 1,527 4.2 -8.3°
Drops below altitude 10° 17:44:44 10° 53° (NE) 2,935 5.5 -9.2°
Enters shadow 17:46:09 - 49° (NE) 3,411 5.8 -9.4°
